Regional Weather Roundup
Issued by NWS Huntsville, AL

Home | Current Version | Previous Version | Text Only | Print | Product List | Glossary On
Versions: 1 2 3 4 5 6 7 8 9 10 11 12 13 14 15 16 17 18 19 20 21 22 23 24 25 26 27
000
ASUS44 KHUN 161210
RWRHUN

WEATHER ROUNDUP FOR THE TENNESSEE VALLEY
NATIONAL WEATHER SERVICE HUNTSVILLE AL
600 AM CST MON JAN 16 2017

ALZ001>004-161300-
NORTHWEST ALABAMA

CITY           SKY/WX    TMP DP  RH WIND       PRES   REMARKS
SHOALS AIRPORT MOCLDY    53  50  89 E6        30.21R
6HR MIN TEMP:  50; 6HR MAX TEMP:  56;

$$

ALZ005>007-016-161300-
NORTH CENTRAL ALABAMA

CITY           SKY/WX    TMP DP  RH WIND       PRES   REMARKS
DECATUR AP     CLOUDY    54  52  93 E9        30.21S
6HR MIN TEMP:  47; 6HR MAX TEMP:  54;

HUNTSVILLE AP  CLOUDY    55  52  89 E5        30.22R
6HR MIN TEMP:  51; 6HR MAX TEMP:  56;

MERIDIANVILLE  CLOUDY    50  48  93 CALM      30.22S
REDSTONE ARSN  CLOUDY    55  52  87 CALM      30.21R
$$

ALZ008>010-161300-
NORTHEAST ALABAMA

CITY           SKY/WX    TMP DP  RH WIND       PRES   REMARKS
ALBERTVILLE    CLOUDY   N/A N/A N/A E3        30.23R
FORT PAYNE     CLOUDY    45  43  93 MISG      30.25R
SCOTTSBORO AP  FOG       46  46 100 NE3       30.26R VSB 1
SCOTTSBORO HCN   N/A     45 N/A N/A MISG        N/A
VALLEY HEAD      N/A     45 N/A N/A MISG        N/A
$$

TNZ076-096-097-161300-
SOUTHEASTERN MIDDLE TENNESSEE

CITY           SKY/WX    TMP DP  RH WIND       PRES   REMARKS
TULLAHOMA      NOT AVBL
$$

...SURROUNDING SITES...

CITY           SKY/WX    TMP DP  RH WIND       PRES   REMARKS
ATLANTA        MOCLDY    52  48  86 E7        30.27R
ANNISTON       CLOUDY    53  49  86 NE3       30.24S
BIRMINGHAM     CLOUDY    57  50  77 CALM      30.24R
CHATTANOOGA    CLOUDY    51  48  89 CALM      30.27R FOG
DALTON         CLOUDY    45  45 100 CALM      30.27S
GADSDEN        CLOUDY    48  47  96 N3        30.25R
GOLDEN TRNGL   NOT AVBL
HALEYVILLE     FAIR      54  49  83 SE3       30.22S
JACKSON TN     MOCLDY    53  52  96 SE3       30.15F
MEMPHIS        MOCLDY    54  53  97 E3        30.11S
NASHVILLE      FOG       49  47  93 CALM      30.22S VSB 1/4
OXFORD MS      FAIR      54  50  87 SE7       30.15R
ROME           CLOUDY    46  43  89 CALM      30.26R
TUPELO         MOCLDY    55  50  83 E5        30.15S
TUSCALOOSA     CLOUDY    53  51  93 NE5       30.20R
$$

...GULF COAST WEATHER...

CITY           SKY/WX    TMP DP  RH WIND       PRES   REMARKS
GULFPORT       CLEAR     64  62  93 SE7       30.13S
PASCAGOULA     PTCLDY    61  58  90 CALM      30.16R
MOBILE         MOCLDY    63  60  90 E6        30.17R
GULF SHORES    PTSUNNY   64  64 100 E5        30.18R
PENSACOLA      MOCLDY    62  60  93 E7        30.17S
DESTIN         CLOUDY    63  59  87 E7        30.20R
PANAMA CITY    CLEAR     57  56  95 E3        30.21S
APPALACHICOLA  CLEAR     60  60 100 E5        30.21R
$$





USA.gov is the U.S. government's official web portal to all federal, state and local government web resources and services.